* Astronomy

Members Login
Username 
 
Password 
    Remember Me  
Post Info TOPIC: Cosmos 1025 mission


L

Posts: 131433
Date:
RE: Cosmos 1025 mission
Permalink  
 


Updated re-entry time:
10 March 2007
@ 13:04 UTC 35 minutes

__________________


L

Posts: 131433
Date:
Permalink  
 

Updated re-entry time:
10 March 2007 @ 11:32:00 UTC 6 hours

Predicted Decay Location 28.2 S, 117.3 E

__________________


L

Posts: 131433
Date:
Permalink  
 

The Tselina dedicated ELINT satellite was developed into two systems: Tselina-O for general observations and Tselina-D for detailed observations. TsNII-108 GKRE (Zaslavskiy) developed the payload while V M Kovtunenko of OKB-586 build the satellite and launch vehicle.

Read more

__________________


L

Posts: 131433
Date:
Permalink  
 

The Kosmos Satellite that was launched from the Plesetsk Cosmodrome LC32 on June 1978, for the Cosmos 1025 mission, is predicted to re-enter the Earths atmosphere on the 10th March @ 09:00 UTC 8 Hours.

Predicted Decay Location 74.8 N, 188.7 E

ORBITdecay
Expand
(84kb, 630 x 390)

TLE Data

 COSMOS 1025
1 10973U 78067A 07068.56864886 .03464974 -12134-5 43111-3 0 224
2 10973 082.4189 102.0995 0007539 233.7296 126.3335 16.36136435574430
1 10973U 78067A 07068.44629105 .03109984 -12132-5 42317-3 0 215
2 10973 082.4195 102.2479 0007174 232.7497 127.2819 16.35300044574416
1 10973U 78067A 07068.20140503 .03147358 -12093-5 50031-3 0 203
2 10973 082.4222 102.5377 0006921 231.8473 128.2175 16.33792811574376
1 10973U 78067A 07067.83366843 .02562272 -12073-5 49924-3 0 198
2 10973 082.4224 102.9738 0006266 229.2411 130.8344 16.31741743574315
1 10973U 78067A 07 67.52691197 .02054242 00000-0 46136-3 0 182
2 10973 082.4211 103.3384 0006712 226.6550 133.4926 16.30226522574265



__________________
Page 1 of 1  sorted by
Quick Reply

Please log in to post quick replies.



Create your own FREE Forum
Report Abuse
Powered by ActiveBoard